{"data":{"norad_id":59580,"intl_designator":"2024-076S","name":"STARLINK-31668","alt_names":[],"object_type":"PAYLOAD","status":"ACTIVE","operator":null,"country":"US","launch_date":"2024-04-23","launch_site_code":"AFETR","launch_vehicle":null,"mission":null,"orbit_class":"UNKNOWN","rcs_meters":null,"size_class":null,"mass_kg":null,"dimensions":null,"purposes":["comms"],"wikipedia_slug":null,"has_3d_model":false,"image_url":null,"decayed_at":null,"tle_current":{"epoch":"2026-05-24T20:04:06.666528Z","epoch_age_seconds":99900,"freshness":"FRESH","line1":"1 59580U 24076S   26144.83618827  .00001841  00000+0  76413-4 0  9994","line2":"2 59580  43.0004 298.5054 0001168 271.2355  88.8363 15.27580834118159","mean_motion":15.27580834,"eccentricity":0.0001168,"inclination_deg":43.0004,"raan_deg":298.5054,"arg_perigee_deg":271.2355,"mean_anomaly_deg":88.8363,"bstar":7.6413e-5,"rev_number":11815,"period_min":94.266697247656,"perigee_km":482.24521250042,"apogee_km":483.84798498909,"semimajor_km":6861.1835987448,"source":"CELESTRAK","updated_at":"2026-05-25T13:38:18.987865Z"}}}